Theta_e
314 313 313 313 313 314 314 314 314 314 314 314 314 313 313 313 312 313 313 312 312 311 310 310 310 311 310 310 310 311 310 311 311 311 311 310 310 310 310 310 310 311 312 312 313 313 313 313 314 315 317 316 316 317 318 320 321 321 322 322 323 324 323 323 322 322 326 333 333 332 335 334 332 333 331 332 332 332 327 332 333 331 331 332 328
313 312 313 313 313 313 313 314 313 313 313 313 313 312 312 312 313 313 312 311 311 310 310 310 310 310 310 310 310 310 310 310 310 310 309 309 309 309 309 310 310 310 311 311 312 313 314 313 313 314 316 315 315 315 317 316 317 316 317 317 317 319 323 321 320 321 321 326 329 334 333 334 329 333 330 330 331 330 331 330 332 334 332 332 331
313 313 312 312 312 313 313 313 312 313 312 312 312 311 311 312 312 312 311 311 311 310 310 310 310 310 309 309 309 308 308 308 309 309 309 308 307 308 309 309 309 309 310 310 311 312 312 313 313 313 313 312 313 314 314 313 313 313 314 316 316 317 318 321 320 318 320 323 327 328 331 332 330 329 331 332 330 331 332 329 330 331 331 333 331
313 312 312 311 312 312 312 312 312 312 312 311 311 311 311 311 311 311 310 311 310 310 310 310 309 309 308 308 307 307 306 307 307 308 307 307 307 308 308 308 309 309 310 310 310 310 311 310 311 311 311 310 310 310 310 310 309 309 310 312 313 314 316 317 318 319 320 319 324 325 330 331 331 332 332 332 330 331 330 331 331 330 331 332 332
312 312 311 311 311 310 311 311 311 311 311 311 311 311 311 310 310 309 310 309 310 310 310 309 308 307 307 306 306 305 305 305 305 305 307 308 308 308 308 308 309 309 310 309 310 309 309 308 308 308 308 308 307 306 307 306 306 306 307 308 309 311 313 314 315 318 319 319 321 325 329 330 331 334 333 329 329 330 331 330 329 329 330 332 330
312 311 311 310 309 310 310 310 310 310 310 310 310 310 310 310 310 309 309 309 309 309 308 308 307 306 306 305 305 305 305 304 304 304 305 307 308 308 308 309 309 308 309 309 309 309 308 308 307 307 306 305 305 304 304 304 304 304 304 304 306 308 309 310 312 315 317 318 320 321 326 327 328 330 333 332 328 326 327 329 329 329 328 328 330
310 310 310 310 309 309 309 309 309 309 309 309 309 309 309 309 309 308 308 308 308 307 307 307 307 306 305 305 304 304 304 303 302 303 303 305 306 307 307 308 308 308 308 308 308 308 308 307 306 306 305 304 303 302 302 302 302 302 303 303 304 305 306 307 309 310 312 315 319 322 323 327 329 326 330 331 330 328 325 326 324 327 327 327 327
310 309 308 308 308 308 308 308 308 308 308 308 308 308 308 308 308 308 308 307 307 306 306 306 306 306 306 305 305 304 304 302 301 300 301 303 306 306 306 307 306 307 308 307 308 307 307 306 305 305 304 304 302 302 302 300 300 300 302 302 303 303 303 304 306 308 310 313 316 318 322 324 327 329 330 328 325 326 327 325 322 323 324 327 328
309 308 307 307 307 307 308 308 308 308 307 307 307 307 307 307 307 307 307 307 307 306 306 306 306 305 305 305 304 304 303 301 299 298 299 301 305 305 305 305 306 305 305 305 306 305 305 305 305 305 305 305 302 301 300 299 300 299 299 300 301 300 301 303 304 305 307 310 312 317 321 322 324 326 325 323 322 321 324 325 321 323 323 324 326
308 307 306 306 306 306 306 307 306 307 306 306 306 307 307 307 306 306 306 306 306 306 306 306 306 305 304 304 305 304 302 300 296 294 295 298 303 304 305 305 305 305 304 303 303 304 304 304 304 305 303 302 301 298 297 297 298 299 299 299 299 299 300 301 301 303 305 307 310 314 317 318 323 326 325 324 325 325 324 324 320 321 322 322 324
306 306 305 305 305 306 306 306 306 305 306 306 306 305 305 306 305 305 305 306 306 306 306 306 306 305 304 304 304 303 302 298 293 292 292 293 299 304 304 304 304 304 303 302 301 302 302 302 303 303 302 301 301 298 296 296 295 295 296 297 298 300 300 300 301 303 303 305 309 313 316 318 322 325 326 325 325 327 327 326 323 321 318 318 317
305 304 304 305 304 304 305 305 304 304 304 304 305 305 305 305 304 305 305 305 306 307 306 305 305 306 305 304 303 303 301 294 291 292 292 291 294 302 305 304 303 303 302 302 301 301 301 301 301 302 301 301 301 300 298 296 295 295 296 296 297 297 297 301 302 303 304 304 306 310 315 318 321 324 326 327 327 326 323 323 323 323 321 319 319
304 304 304 304 303 304 304 304 303 303 303 304 305 304 304 304 304 304 304 305 306 305 305 305 305 305 305 304 303 302 300 293 291 292 292 291 292 297 304 303 302 302 302 301 302 301 300 300 300 301 300 302 301 298 298 299 297 297 299 300 300 300 298 296 295 301 304 304 303 305 309 315 318 320 324 328 330 326 325 321 321 323 324 321 320
303 302 303 302 302 303 303 303 303 303 303 304 304 303 303 303 305 305 305 305 305 305 305 305 304 304 304 304 303 302 299 293 291 291 292 291 291 294 305 303 303 302 301 301 301 301 300 299 298 298 299 299 299 296 296 297 300 302 303 304 304 304 301 300 299 299 300 303 304 304 308 314 315 319 323 327 327 324 323 322 325 323 322 321 323
302 302 301 301 301 302 302 303 302 302 303 303 304 303 304 304 304 304 304 304 304 303 303 304 304 304 304 304 304 302 299 291 291 291 291 291 290 295 305 303 303 303 302 302 301 301 300 299 299 298 298 298 297 294 294 296 299 300 300 301 302 303 304 305 305 304 304 305 305 306 308 311 315 319 321 324 326 328 328 327 326 325 323 323 325
301 301 300 300 300 301 301 301 302 302 302 302 303 303 303 304 303 304 304 304 304 304 304 303 303 303 303 304 303 302 299 291 291 291 291 291 291 304 303 303 302 301 301 301 301 301 300 299 298 297 297 297 295 291 292 295 299 298 297 298 300 301 302 302 299 299 302 303 303 303 302 301 296 301 303 310 320 326 327 328 328 325 322 318 317
299 300 300 300 300 300 300 300 301 301 302 302 302 303 303 303 304 304 303 304 303 303 303 303 303 303 302 303 303 301 300 294 290 291 291 290 296 304 303 302 301 301 301 301 301 301 300 299 298 297 297 296 293 290 290 293 298 296 296 297 298 298 298 301 299 298 297 296 297 296 295 295 296 296 296 295 301 310 321 320 319 321 319 316 316
297 298 298 299 300 300 300 300 300 301 302 302 302 302 303 303 303 304 303 303 302 303 303 303 303 303 302 301 302 301 300 296 291 291 291 290 294 303 302 301 302 301 301 301 301 301 300 299 299 297 296 296 291 290 290 294 297 296 295 295 295 294 295 298 301 302 299 298 298 297 297 297 298 299 297 297 297 305 317 316 320 321 317 317 316
298 299 299 300 300 300 300 301 301 301 301 302 302 302 302 302 303 304 303 303 303 303 303 303 303 303 303 301 299 301 301 298 292 291 291 291 295 303 301 301 300 300 300 300 301 300 300 300 297 295 295 294 290 290 290 293 296 295 295 294 293 292 293 297 298 298 300 301 301 302 303 303 307 308 307 299 300 304 309 309 313 317 317 318 317
298 299 300 300 301 301 301 301 301 301 301 302 302 302 303 303 303 303 303 303 302 302 302 303 302 302 303 302 301 301 301 300 297 290 291 291 291 299 301 299 299 299 300 299 299 300 300 301 299 293 290 290 290 290 290 290 295 296 295 293 291 290 294 296 296 296 298 298 299 301 301 304 305 306 308 309 309 308 307 308 308 310 312 315 317
299 300 300 300 300 300 301 301 301 301 301 301 301 302 302 302 302 302 302 303 303 302 302 303 302 302 302 303 302 300 299 300 298 291 292 291 291 293 301 300 300 300 299 299 299 299 299 299 300 294 290 290 290 290 290 290 291 296 294 293 292 292 294 295 295 295 297 298 298 299 300 302 304 305 305 306 306 306 307 306 307 307 307 307 310
300 299 299 299 300 300 301 301 302 301 301 301 301 301 302 302 302 302 302 302 302 302 302 302 301 301 302 302 303 302 300 297 300 294 292 291 291 291 297 300 297 300 299 299 299 299 299 299 299 295 290 290 290 291 291 291 291 296 293 290 290 290 295 296 296 295 295 296 297 298 297 297 300 302 303 304 304 305 306 306 306 307 306 306 304
300 300 300 299 300 300 300 301 301 301 301 301 300 300 301 302 302 302 302 302 302 301 301 302 301 301 301 301 302 302 302 300 294 298 293 291 291 291 290 295 292 301 300 299 299 298 299 299 298 294 290 290 290 291 291 291 293 294 290 290 291 291 294 296 294 293 293 293 294 295 296 296 297 299 301 302 304 305 305 306 306 306 306 306 306
300 300 299 299 299 299 300 300 301 302 301 301 301 301 301 301 301 301 301 300 300 300 300 301 300 300 300 300 301 301 302 302 296 293 297 292 291 291 291 290 291 298 301 300 300 298 298 299 297 291 290 291 291 291 292 291 293 290 290 290 291 293 296 296 294 293 291 291 291 293 295 296 297 299 299 302 303 304 306 306 306 306 306 305 305
300 299 299 299 299 299 300 301 301 302 302 301 301 301 301 301 300 301 301 300 299 299 298 300 300 300 299 299 299 300 300 300 301 297 292 293 292 291 291 291 291 290 299 300 300 300 294 291 290 291 291 291 291 293 294 293 291 291 291 291 294 295 295 295 295 294 291 289 290 292 294 296 297 299 300 301 303 304 305 305 306 307 307 305 304
299 299 299 299 299 299 299 300 301 301 302 302 302 301 301 301 300 300 299 299 299 299 298 298 298 299 299 299 299 299 299 300 300 300 297 296 295 292 292 292 293 292 294 298 292 292 291 292 292 292 293 295 299 299 299 298 292 292 292 294 296 296 295 295 295 295 293 292 292 293 294 296 297 298 299 299 299 300 301 302 303 303 304 303 302
299 299 299 299 299 299 299 299 300 301 302 301 302 302 301 301 301 300 301 299 299 298 298 298 298 298 298 299 299 298 299 298 298 298 298 299 299 299 299 299 295 294 299 300 297 299 298 296 295 293 293 291 293 293 294 295 297 297 298 297 296 296 296 297 296 295 295 294 294 294 296 296 297 296 296 296 296 297 300 299 300 300 300 301 300
299 299 300 300 299 300 299 293 297 300 300 301 300 300 300 300 299 299 300 300 299 298 298 299 297 297 297 298 298 298 297 297 296 296 296 296 297 298 298 298 299 299 297 298 299 300 300 295 295 299 298 298 298 298 297 298 298 297 297 296 296 297 296 295 295 296 296 298 297 296 296 297 295 295 296 296 296 296 298 299 298 298 299 299 298
300 300 300 300 299 299 299 301 300 300 300 301 301 302 302 301 299 298 299 300 299 300 299 299 299 299 297 297 297 297 297 295 296 290 293 289 291 295 296 296 296 297 295 291 297 300 299 298 297 296 296 293 294 296 296 296 296 297 297 297 297 296 297 297 296 295 295 297 297 296 296 297 296 296 296 296 295 296 297 297 298 297 297 297 296
300 300 300 300 300 299 300 300 300 299 299 298 298 298 290 288 294 300 298 290 282 283 287 296 297 299 299 297 297 296 295 296 289 288 288 288 289 288 289 289 289 292 291 288 295 296 297 295 296 295 295 295 294 293 294 295 294 294 295 293 295 295 295 296 296 296 295 295 296 296 297 297 297 298 297 296 297 297 296 294 295 296 295 295 294
299 299 299 299 298 300 300 300 301 301 301 300 299 297 298 297 286 283 289 291 291 288 284 284 287 288 294 299 296 288 289 288 288 288 288 289 288 288 289 289 289 289 289 293 295 294 294 293 294 294 294 295 293 294 293 294 293 293 294 294 295 295 294 295 296 295 295 295 295 295 296 297 296 297 297 296 295 297 297 297 296 295 294 293 293
299 299 300 299 299 300 300 300 301 300 300 300 300 300 299 297 297 290 288 290 289 289 290 288 288 289 288 291 295 298 293 289 288 288 288 288 288 288 288 288 289 289 289 290 294 293 294 293 293 294 294 293 293 293 294 294 294 294 293 293 293 294 294 293 295 296 295 295 295 294 295 295 296 295 296 295 295 297 297 296 296 294 293 293 293
301 301 300 299 299 299 299 300 300 300 300 300 300 301 300 299 297 296 295 288 288 289 288 289 288 289 289 288 287 288 289 289 288 288 288 288 288 289 288 289 290 289 290 294 294 293 293 294 294 294 294 293 294 294 294 295 295 295 294 293 293 294 295 296 294 295 294 294 295 295 295 295 295 294 294 295 295 294 294 295 296 295 295 293 292
302 301 300 299 299 300 300 300 301 300 301 300 300 300 299 300 299 299 298 296 295 290 289 288 289 288 288 288 289 289 288 288 288 288 288 288 288 289 289 293 291 289 291 297 295 293 295 294 294 294 294 294 294 294 293 294 294 294 294 294 294 295 295 296 295 294 294 294 294 294 295 295 295 295 295 295 296 296 295 295 296 294 294 294 293
302 295 291 295 301 301 301 300 300 300 300 300 298 298 299 298 299 298 298 299 298 298 299 296 290 289 295 292 287 285 288 288 288 288 288 288 289 289 289 298 295 297 297 298 296 295 294 294 294 294 295 294 294 293 293 295 294 294 293 294 294 293 294 293 293 294 294 294 294 294 294 294 296 295 295 295 295 295 295 295 295 296 296 295 294
301 300 301 300 301 301 301 301 301 300 300 300 301 299 298 299 298 298 297 297 298 298 298 299 299 290 283 289 284 286 287 287 289 288 288 287 289 289 295 294 294 295 295 296 296 295 294 294 294 295 294 294 295 294 294 293 293 293 293 293 291 291 291 292 291 292 292 293 292 293 294 295 295 295 296 295 296 295 296 296 295 295 295 295 295
301 299 300 301 302 301 301 301 302 301 297 297 298 299 299 300 297 298 298 299 297 298 298 299 300 299 293 296 292 288 287 288 288 288 289 291 289 294 297 296 295 296 295 296 295 295 295 295 295 295 295 294 294 294 294 294 293 294 291 292 292 290 290 291 291 291 292 292 293 293 293 293 294 294 295 294 294 294 295 295 295 294 294 293 292
302 301 300 301 302 302 301 301 300 293 296 300 300 300 300 299 299 297 298 298 295 295 298 298 293 298 298 299 298 298 298 289 288 289 289 290 293 295 298 296 295 295 295 295 295 296 295 295 295 295 295 295 294 295 294 294 294 292 291 291 290 289 288 290 290 291 291 291 292 292 292 293 294 294 294 294 293 294 294 294 295 295 295 294 294
302 295 291 293 295 301 300 301 299 299 300 300 301 300 296 299 298 298 298 298 297 297 295 298 298 298 298 298 300 300 296 298 296 294 294 294 296 297 297 297 298 295 297 296 296 295 296 295 295 295 295 295 294 294 294 293 293 293 292 290 289 289 289 290 290 290 291 291 291 292 292 293 293 294 294 294 293 294 294 293 294 294 295 295 295
301 301 297 292 297 298 299 297 298 298 297 300 300 299 298 296 298 297 297 297 298 297 298 297 297 299 299 299 298 298 298 295 295 295 295 293 294 298 298 296 297 297 296 297 297 296 296 296 296 295 294 295 294 294 294 294 292 292 292 290 289 289 289 289 290 290 290 290 291 291 291 292 292 293 293 294 294 294 294 294 294 294 294 295 294
302 301 296 295 295 300 298 299 299 300 300 298 299 299 299 299 299 297 299 297 295 296 297 297 298 299 298 294 287 289 297 298 297 297 297 295 295 297 297 297 297 298 297 296 297 296 296 296 296 295 295 294 294 294 294 293 292 292 291 291 289 289 289 289 289 289 290 290 290 290 291 291 292 292 291 292 292 293 293 294 294 294 294 294 294
301 301 300 299 297 299 300 297 298 300 299 300 299 299 297 297 298 298 298 295 295 295 296 298 299 299 293 286 288 284 294 299 299 296 298 298 298 297 296 298 299 298 298 298 298 297 296 296 295 294 293 293 293 293 293 292 292 292 292 291 290 289 289 289 289 289 289 290 290 290 290 290 291 291 291 290 292 293 293 293 294 294 294 294 294
300 300 300 301 299 300 299 299 299 300 299 299 298 295 296 299 299 297 298 295 295 295 296 296 299 300 298 288 289 285 296 298 294 297 298 297 298 297 297 298 299 299 300 300 300 299 295 294 295 295 294 294 293 293 293 293 292 292 292 291 291 289 289 289 289 289 289 290 290 289 290 290 290 291 291 291 291 292 292 292 292 293 293 293 293
300 299 301 299 299 299 298 300 300 299 299 297 296 296 297 297 299 298 298 298 297 296 296 297 296 298 300 297 291 294 297 298 299 298 298 296 297 297 297 299 299 299 300 299 299 300 295 296 295 295 294 296 297 297 295 293 293 293 292 292 291 289 289 289 289 289 289 290 290 290 290 290 289 290 290 290 290 290 290 290 291 291 292 292 292
302 300 299 300 299 299 299 300 298 299 296 296 299 298 295 298 298 299 299 297 295 297 296 295 295 297 296 297 298 299 298 298 295 295 295 298 297 298 298 298 298 298 297 295 298 299 297 296 295 294 292 294 297 295 296 296 295 294 293 293 292 291 291 290 290 290 290 289 290 290 290 290 289 289 289 290 289 289 290 290 290 289 291 291 291
301 300 299 299 298 297 299 300 297 299 299 298 297 298 298 298 298 297 297 298 296 297 296 296 296 296 295 297 298 296 297 297 298 297 296 295 295 297 297 298 298 297 298 297 297 297 295 295 295 295 294 294 295 296 298 297 297 297 297 296 295 292 293 293 292 291 291 290 290 290 290 289 289 289 287 290 290 289 289 289 289 289 290 290 290
302 300 299 299 299 298 298 300 299 298 299 298 298 298 298 298 299 297 295 296 298 295 298 298 298 297 297 298 297 298 297 296 296 294 298 298 298 298 297 297 297 298 298 298 295 297 296 296 295 295 294 295 294 297 297 297 298 296 296 296 297 295 294 293 292 292 292 291 291 291 290 290 289 289 289 289 289 289 288 289 289 288 289 289 290
302 300 300 299 299 299 299 299 298 294 297 297 298 298 296 297 298 297 297 298 297 298 297 297 298 298 296 297 297 297 298 297 296 296 296 296 297 297 298 298 295 297 296 297 297 296 297 297 296 295 294 294 294 294 296 297 298 297 297 297 295 295 290 287 292 294 292 291 292 291 291 291 290 290 289 289 289 289 288 288 289 289 289 289 289
300 300 300 300 300 299 298 299 298 298 297 298 297 297 296 297 297 299 298 298 299 297 298 298 299 299 298 299 297 297 298 295 297 298 297 297 298 299 298 297 295 296 295 296 297 297 297 297 296 296 295 296 296 296 295 297 297 297 297 297 291 282 282 282 288 292 289 289 292 293 292 292 291 290 290 289 289 289 289 288 288 288 289 288 289
301 299 300 299 300 299 300 299 299 299 298 298 298 298 297 298 298 298 299 298 298 299 299 299 298 298 298 298 297 298 298 297 297 298 298 298 298 299 298 298 298 297 295 296 296 296 297 297 296 297 296 296 296 296 297 296 297 296 296 293 286 283 285 282 282 283 288 292 292 293 293 292 291 291 291 291 290 289 289 289 288 288 288 289 288
299 301 299 300 300 299 300 299 299 299 299 298 298 299 298 298 298 298 298 298 298 299 298 299 299 299 299 299 297 298 299 299 299 299 299 299 299 299 299 298 297 298 298 297 297 296 295 296 296 297 297 296 296 296 297 297 297 296 293 288 284 285 283 283 288 286 282 285 290 293 293 292 291 290 291 291 291 290 288 288 289 289 289 289 288
Wind_Speed
9 9 9 9 9 9 9 9 8 7 7 7 7 7 7 6 7 6 7 8 8 8 8 7 7 7 8 8 9 9 9 9 8 8 9 10 9 9 10 10 11 10 10 11 11 10 10 11 12 12 12 12 11 11 10 11 12 11 11 12 12 12 13 12 13 14 11 8 8 8 8 9 9 11 12 12 12 11 13 12 11 11 12 12 11
9 10 9 9 9 9 9 8 7 6 7 7 7 8 7 7 6 6 8 8 7 8 8 7 7 8 8 9 9 9 10 10 10 9 9 10 10 8 9 11 11 11 10 11 12 10 11 12 12 12 11 12 12 12 11 11 12 12 11 11 11 13 12 12 13 12 12 7 8 8 8 9 9 10 12 13 12 11 11 12 12 13 13 12 10
9 9 9 9 9 8 8 8 8 7 8 7 8 8 8 8 7 7 7 7 7 8 8 8 8 8 9 9 9 10 10 10 9 9 9 10 10 10 10 11 11 12 12 12 12 12 12 12 12 12 11 12 12 11 12 12 12 13 14 12 12 12 12 12 12 14 14 12 10 10 8 8 10 11 11 11 11 11 10 15 14 14 12 13 12
9 9 9 9 9 9 9 9 8 7 8 8 9 9 8 8 8 8 8 7 8 7 8 8 8 9 9 9 10 10 11 10 10 10 10 10 11 11 11 11 11 11 12 12 12 12 13 13 12 13 13 14 13 12 12 13 13 13 14 13 13 14 12 11 11 12 12 14 13 11 8 8 10 10 9 10 12 11 12 12 13 13 14 13 14
9 9 9 10 9 9 9 8 8 8 9 8 9 9 9 8 8 9 8 8 8 7 7 8 8 9 9 10 10 11 11 11 12 12 11 10 11 11 11 11 11 12 11 12 12 12 12 13 13 13 13 13 13 13 13 16 14 13 14 14 13 13 12 12 13 13 14 15 13 12 11 10 10 8 9 9 10 12 11 11 13 13 13 12 13
9 9 9 9 9 9 9 9 9 9 9 9 9 9 9 9 9 8 8 9 8 8 9 8 8 9 10 10 11 11 11 12 12 12 12 11 11 11 10 11 11 11 11 12 12 12 12 13 13 13 13 14 14 15 16 17 16 15 16 15 15 14 14 14 13 13 14 14 13 14 12 12 10 10 10 10 11 9 9 10 10 12 13 14 14
9 9 9 8 9 9 9 9 8 9 9 9 9 9 10 9 10 9 8 9 9 9 9 9 8 9 10 10 11 12 12 13 13 13 12 11 11 11 11 11 12 11 11 13 13 13 13 13 13 13 14 14 15 16 16 17 15 18 16 16 15 15 15 14 13 14 13 14 14 12 12 10 10 11 9 8 10 12 11 10 10 11 11 12 13
9 9 8 9 9 9 9 9 9 9 9 9 10 10 10 10 9 9 8 9 9 9 8 8 8 8 9 10 11 11 12 13 14 14 12 11 10 10 11 11 12 12 12 13 13 13 14 14 13 14 14 14 16 16 16 15 15 17 16 15 16 16 15 14 14 13 13 13 13 13 11 12 9 9 7 7 10 10 9 9 11 10 11 11 12
9 9 9 9 9 8 8 8 8 9 10 10 10 10 10 9 9 9 9 8 7 8 8 9 9 9 10 10 11 11 11 11 13 14 13 11 9 10 11 11 12 12 13 13 13 14 14 14 14 14 16 19 17 15 15 15 15 16 17 17 17 16 15 14 13 13 13 13 13 12 11 12 12 10 8 9 11 12 8 9 12 9 8 9 11
9 9 9 9 9 9 9 9 9 9 9 10 10 9 9 9 9 9 9 8 8 8 8 8 8 9 10 10 10 10 11 10 17 20 15 10 9 9 10 11 12 12 13 14 14 14 15 14 14 21 18 18 18 17 17 19 19 17 16 16 17 17 16 16 14 13 13 14 14 13 14 12 11 11 10 10 9 8 8 9 11 10 9 10 9
9 9 9 9 9 9 8 9 9 9 9 9 9 10 10 8 8 9 8 8 8 8 8 9 8 8 9 10 11 10 10 12 18 17 17 17 11 10 11 11 12 13 13 14 14 15 15 15 15 17 19 20 20 21 21 23 22 20 19 19 18 16 16 16 16 14 13 13 15 14 13 14 13 13 11 10 8 9 8 6 8 8 10 11 12
9 9 9 9 9 9 9 9 9 9 9 9 9 9 9 9 8 8 7 8 8 7 8 8 8 8 7 9 11 11 11 17 18 19 17 18 15 11 9 11 11 12 13 14 13 14 15 15 15 14 15 18 18 19 24 26 23 22 20 20 19 19 16 15 14 15 14 13 14 15 15 15 13 12 10 10 10 10 11 11 10 9 10 10 10
10 10 9 9 9 9 9 9 9 9 9 9 8 8 8 8 8 7 8 7 8 9 8 8 8 8 8 9 11 12 13 17 17 18 17 18 18 15 8 12 12 12 13 14 14 15 15 15 15 15 15 23 19 20 21 22 23 23 20 20 18 18 18 12 10 13 15 16 16 16 15 15 16 13 12 11 10 11 9 10 11 9 7 9 10
9 9 9 9 9 9 9 9 9 9 9 8 8 8 7 7 6 6 6 7 8 8 8 9 8 8 8 8 9 11 14 16 16 18 17 18 18 16 9 12 12 12 14 14 13 15 16 16 16 17 17 18 17 20 21 20 20 19 19 18 18 19 17 13 17 18 12 12 15 17 17 15 13 13 13 11 11 10 10 11 9 9 12 14 11
9 9 9 9 9 9 9 9 9 9 9 8 8 7 6 6 6 6 6 7 7 8 8 9 8 8 8 8 8 10 11 18 17 18 19 19 20 15 12 11 12 12 13 14 14 15 15 15 17 17 17 17 18 23 21 19 18 16 18 17 17 17 16 16 17 15 14 11 11 13 15 15 13 11 9 9 9 9 10 11 11 11 11 7 6
9 9 9 9 9 9 9 9 9 8 8 8 7 6 6 6 6 6 6 6 7 7 7 8 9 10 9 8 9 10 12 18 17 18 19 19 21 6 10 11 13 13 13 14 14 13 14 15 16 16 17 17 22 25 23 19 16 17 17 17 17 16 15 16 15 16 14 12 10 10 10 11 9 7 7 6 7 7 7 5 4 6 7 8 10
9 8 8 8 9 9 9 9 9 8 8 7 6 6 6 6 5 5 6 7 7 8 7 8 8 9 10 10 9 10 12 16 17 17 18 20 16 8 10 11 13 13 13 13 13 13 12 12 16 16 16 17 21 22 23 23 15 17 17 17 15 15 16 16 16 17 17 17 16 15 15 14 10 11 12 12 7 5 4 5 8 6 8 7 7
8 8 8 8 8 9 9 9 9 8 7 7 6 5 5 5 5 5 6 7 7 7 7 7 8 9 11 11 10 10 11 14 15 16 18 20 18 10 9 11 13 13 13 13 13 13 13 15 19 18 17 18 21 22 22 21 16 17 18 19 18 18 18 17 15 15 18 16 16 18 15 14 12 9 10 12 13 9 2 4 5 8 9 9 8
8 8 9 9 9 9 9 9 9 8 7 7 6 6 5 5 5 5 6 6 6 6 6 7 7 8 10 11 12 11 10 12 14 15 17 19 17 9 11 11 12 13 13 13 13 12 13 14 17 18 17 18 20 21 23 22 17 17 18 18 18 18 17 18 16 17 15 14 15 15 13 15 12 9 9 11 10 11 8 7 6 4 5 6 9
9 9 9 9 9 9 9 9 8 8 7 6 6 5 5 6 6 6 6 6 6 6 6 7 8 8 8 9 10 11 10 11 13 15 16 17 19 12 10 10 12 14 14 13 13 13 13 14 14 18 19 19 19 20 21 21 18 17 18 17 16 17 15 14 16 15 13 14 13 13 13 11 12 10 9 8 9 11 10 8 8 7 6 5 5
10 9 9 10 10 10 9 9 9 8 7 6 6 6 6 6 6 6 7 6 6 6 6 6 6 7 7 7 9 11 11 11 12 14 14 15 16 15 9 10 10 12 12 12 12 13 12 12 12 17 18 17 17 19 21 20 19 17 18 17 15 16 16 13 16 19 11 11 12 13 12 10 10 10 8 8 10 10 10 11 11 9 8 8 7
10 10 10 11 10 10 10 9 8 7 7 7 7 7 6 6 6 6 6 6 6 6 5 5 6 6 6 7 8 8 11 13 11 12 13 13 14 14 11 11 12 10 12 11 10 11 11 11 12 16 17 16 14 16 20 19 19 18 16 18 19 21 14 12 11 12 13 10 12 10 12 14 11 11 10 11 11 10 11 11 11 10 9 8 7
11 11 11 11 11 11 10 10 8 7 7 8 8 8 7 7 6 6 6 6 6 6 6 5 5 5 6 6 6 7 8 9 11 12 13 11 12 12 12 11 15 10 10 9 10 10 10 11 13 17 17 16 13 11 16 19 17 16 20 20 19 19 15 13 12 11 11 11 11 11 12 13 11 11 12 11 10 11 12 12 11 11 10 9 10
11 11 11 11 11 11 10 9 8 8 8 8 8 8 7 7 6 5 4 5 5 5 5 5 5 5 6 6 6 7 7 8 9 10 10 9 8 10 10 12 11 9 8 8 9 10 11 11 12 17 16 16 15 9 12 16 14 19 20 20 19 16 13 12 12 13 10 10 12 12 12 11 10 12 13 12 10 11 9 10 11 12 12 11 12
11 11 11 11 10 10 9 8 8 8 7 7 7 7 7 6 6 6 5 5 5 5 5 5 5 5 6 6 6 7 8 8 9 9 8 6 6 9 8 9 10 11 7 7 8 8 9 12 13 13 13 15 12 13 13 13 15 16 19 18 17 12 13 12 12 12 13 14 12 11 14 11 11 10 12 12 12 11 11 10 10 10 11 11 12
11 11 11 10 10 10 10 9 8 8 7 7 6 6 6 6 6 6 6 6 5 5 6 5 6 6 6 6 6 7 8 8 9 10 10 10 9 9 8 7 9 8 6 6 7 7 8 11 12 12 14 13 12 13 13 11 12 14 15 16 12 11 12 13 13 13 13 13 13 14 13 12 13 11 12 12 13 13 12 11 12 12 12 12 12
11 11 11 10 10 9 9 8 7 6 6 6 6 5 5 5 5 5 5 5 5 6 6 6 6 6 6 6 6 7 7 8 9 9 10 9 9 9 10 10 9 10 9 8 8 10 10 11 10 9 11 12 13 11 14 13 13 15 15 14 11 9 9 11 12 13 12 11 11 12 11 11 12 14 15 14 14 13 14 13 13 13 12 11 12
11 11 11 9 8 8 8 4 5 6 6 6 7 7 7 7 7 6 6 5 5 6 6 6 6 7 7 6 6 6 7 7 8 9 9 9 9 9 9 9 10 9 10 10 10 9 9 9 10 11 12 12 13 13 13 13 13 14 15 14 14 12 12 13 12 10 11 8 9 8 9 12 14 13 13 13 14 13 13 13 13 13 13 13 13
11 11 10 9 8 9 8 6 6 6 6 6 6 6 6 6 8 8 8 7 7 6 6 6 5 6 7 7 6 6 6 7 7 7 6 6 5 8 9 9 9 9 10 14 11 8 9 10 10 11 12 11 12 13 13 13 13 14 15 15 14 14 13 13 12 11 9 9 11 11 11 10 11 11 12 12 14 14 13 13 14 13 13 13 13
11 10 9 8 8 7 7 6 7 7 7 8 8 8 7 7 8 5 6 3 3 4 6 6 6 6 5 7 7 6 6 5 7 8 9 9 10 9 9 11 11 10 13 18 11 6 8 8 9 10 11 12 12 11 12 13 13 13 13 14 14 14 14 14 13 14 12 11 11 10 11 10 10 11 11 12 11 11 12 13 14 14 13 13 13
9 8 8 8 8 7 7 7 6 6 6 7 8 8 7 5 5 6 6 3 1 1 0 2 5 7 7 3 7 6 5 4 7 8 9 9 10 10 11 11 12 13 15 10 6 7 7 8 8 8 9 11 10 11 10 11 11 11 13 13 13 14 13 14 14 12 12 12 12 12 12 13 13 11 11 10 10 11 11 11 11 13 14 13 13
9 8 8 8 7 7 7 6 6 6 6 5 6 6 7 8 6 4 4 5 5 2 2 0 2 3 5 7 6 4 6 6 7 7 9 9 10 11 12 12 12 13 15 13 6 7 7 7 8 8 9 10 9 11 11 12 12 12 11 11 12 14 14 14 13 14 12 13 12 13 13 12 13 11 11 11 8 10 10 10 11 11 11 13 13
9 9 8 9 7 6 7 6 6 5 5 5 4 4 5 5 6 7 5 6 7 7 6 4 4 4 2 1 3 4 4 6 6 7 7 8 10 11 12 14 13 12 14 5 7 7 7 9 9 10 9 9 10 11 11 11 12 12 12 12 12 12 14 14 13 14 12 13 12 13 13 12 11 10 9 10 12 12 11 11 14 14 14 12 12
9 8 9 9 8 7 6 6 6 6 5 4 4 3 3 2 2 3 6 7 5 3 5 7 8 7 5 2 1 2 3 4 5 7 8 9 10 11 10 9 13 13 7 7 6 7 8 9 9 10 10 10 10 10 10 11 11 11 11 12 12 13 13 14 13 13 11 12 13 13 13 12 11 12 12 12 12 13 13 11 12 13 15 14 14
9 8 7 7 8 6 6 6 5 5 4 4 4 4 4 2 2 1 2 2 1 3 6 6 6 6 3 6 3 2 4 5 5 6 8 9 11 12 14 6 3 4 6 7 7 8 8 8 9 9 9 10 10 9 10 11 11 11 10 11 12 12 12 12 12 13 11 11 12 12 12 13 13 11 12 12 13 14 14 14 13 14 14 13 13
9 9 9 5 6 6 6 6 5 5 5 4 2 2 2 3 3 2 2 1 2 1 1 3 4 7 6 1 3 4 5 6 6 7 7 9 11 12 4 4 3 5 6 7 7 7 7 8 8 8 9 9 9 10 10 10 11 11 11 11 10 10 10 10 11 12 11 10 10 11 11 11 12 12 11 12 14 12 13 13 12 11 11 12 13
8 9 9 7 6 6 5 5 5 3 2 3 4 3 3 2 1 1 1 2 1 1 1 1 3 7 6 6 7 8 9 8 9 9 10 8 10 9 4 5 5 5 6 6 7 6 7 7 8 8 8 8 9 9 9 9 10 10 10 11 11 11 10 9 10 9 11 11 11 10 10 11 11 11 11 12 12 12 12 12 11 11 10 11 12
8 8 8 8 7 6 6 5 5 5 4 4 2 2 3 2 2 1 1 2 2 2 1 2 0 2 2 4 8 4 7 10 8 8 10 11 5 2 4 4 5 5 5 5 6 6 6 7 7 8 8 8 8 8 9 9 9 9 8 10 8 8 11 9 8 9 10 10 10 11 11 10 10 10 10 10 11 11 12 11 12 11 11 12 12
7 6 7 8 6 6 6 5 6 6 5 4 3 2 1 1 2 2 2 2 3 1 1 1 1 0 1 1 2 3 7 5 2 1 2 2 2 2 4 4 4 4 5 5 5 5 6 6 6 7 7 7 8 8 8 8 8 7 7 8 8 7 9 9 9 9 9 10 9 10 10 10 10 10 10 10 10 9 10 10 10 11 10 10 11
8 9 5 5 6 5 4 5 5 5 4 3 4 3 4 4 3 3 3 2 2 1 2 1 2 1 1 1 1 4 3 1 1 1 1 2 2 3 3 3 4 4 4 4 5 5 5 5 5 6 7 7 7 8 8 8 6 6 7 7 8 8 8 8 8 8 8 9 9 9 9 9 9 9 9 9 10 9 9 9 9 9 9 9 9
8 8 9 7 6 6 6 4 5 4 4 4 3 3 3 3 3 2 2 1 1 2 3 3 2 1 2 3 3 4 6 4 2 2 1 1 1 2 3 2 2 3 3 3 4 4 4 5 5 5 6 6 7 7 7 7 5 5 6 6 7 7 7 7 7 8 8 7 8 9 8 9 8 9 9 9 10 9 9 8 8 7 7 8 8
7 7 8 8 8 7 6 6 5 5 4 3 4 4 3 4 4 4 3 3 3 3 4 4 3 2 7 8 5 5 6 5 3 3 3 2 2 1 2 2 2 2 3 3 3 3 3 4 3 3 3 3 4 4 4 4 5 5 5 5 6 7 7 7 7 8 7 7 7 8 8 8 7 7 8 10 8 8 8 9 8 7 7 6 6
7 7 7 7 7 7 7 6 6 6 6 5 5 4 4 4 4 3 4 4 4 4 4 5 4 4 5 10 8 6 6 6 4 4 3 4 3 2 2 2 2 1 1 2 2 2 1 2 2 2 2 2 3 3 3 4 4 4 4 4 5 6 6 6 6 7 7 7 6 7 6 7 7 6 7 7 7 7 7 8 8 7 6 7 6
7 6 6 6 7 6 6 6 6 6 6 5 3 3 4 5 5 5 4 4 5 5 5 5 5 4 2 8 7 7 7 6 4 4 3 3 4 3 3 3 2 2 3 2 2 2 1 1 2 2 2 2 3 3 3 2 3 3 3 4 4 4 4 5 6 6 7 7 6 6 6 6 7 6 6 6 6 7 6 7 7 7 7 6 7
7 7 7 6 6 6 6 6 6 6 6 5 6 6 6 6 5 5 5 5 5 5 5 4 5 5 5 5 5 5 5 4 4 4 5 4 4 5 3 4 3 4 2 2 2 2 1 2 2 2 2 2 3 2 1 1 2 2 2 3 3 4 4 4 4 4 5 6 6 6 5 6 6 6 7 5 5 5 6 6 6 8 5 6 6
7 7 7 6 6 6 5 5 6 6 6 7 6 6 6 7 6 6 5 5 5 5 4 4 4 5 5 6 5 5 5 5 5 4 4 4 3 3 3 3 3 3 3 3 2 2 2 3 2 2 2 2 2 3 4 2 2 1 2 2 2 2 2 3 3 3 4 5 6 5 5 5 5 5 7 7 5 5 5 5 4 5 5 4 5
8 7 7 7 6 6 6 5 5 6 7 7 6 6 6 6 5 5 5 5 5 5 5 5 5 5 6 6 6 6 6 6 6 4 5 5 5 4 4 4 3 3 3 3 4 4 4 4 4 3 3 3 2 4 5 3 3 2 1 2 1 2 2 3 3 3 3 3 4 4 5 5 5 4 5 6 5 5 5 4 4 4 4 4 4
8 7 7 7 7 6 6 6 5 6 6 6 7 6 6 6 6 6 6 6 7 7 7 7 7 6 6 6 6 6 6 6 6 6 6 6 6 4 5 5 3 4 4 4 4 4 4 4 4 4 4 4 4 4 4 5 4 3 3 3 0 2 4 4 3 4 3 3 3 3 3 4 4 4 4 4 5 5 5 5 4 3 3 3 3
8 8 7 7 7 7 6 6 6 6 7 7 7 7 7 7 7 7 6 7 7 7 7 7 7 7 7 7 6 7 7 6 7 6 6 6 6 6 4 4 4 4 4 4 4 5 5 5 5 5 5 5 5 5 4 6 6 5 4 4 4 7 3 2 4 3 7 5 4 3 3 3 3 3 3 3 3 4 4 4 4 4 2 3 3
8 8 8 7 7 7 7 6 6 6 7 7 7 7 7 7 7 7 7 7 7 7 7 7 7 7 7 7 7 7 7 7 7 7 7 7 6 6 6 5 5 4 4 4 4 5 5 5 6 6 6 6 6 6 5 5 7 4 5 2 10 7 6 5 5 5 5 3 3 3 3 3 3 4 3 3 3 2 3 4 4 4 3 2 2
8 8 8 8 7 8 8 7 7 7 7 7 7 7 7 7 7 7 7 8 8 8 8 8 8 8 8 8 8 8 8 8 8 8 7 7 7 7 7 5 5 4 5 5 5 5 5 5 6 6 6 7 7 7 7 7 6 6 5 8 9 8 8 6 5 6 5 4 4 4 3 3 3 3 4 3 4 3 3 4 4 4 4 3 2
Wind_Direction
98 98 99 100 100 97 94 92 85 79 79 78 78 75 75 73 72 71 68 61 59 56 53 44 37 30 27 23 18 17 11 12 11 6 11 5 358 355 353 353 353 354 349 349 349 344 340 335 334 335 334 330 327 323 318 319 317 315 318 317 316 316 314 306 284 279 278 256 243 247 223 224 237 224 228 231 229 221 219 222 218 214 209 213 203
105 104 102 102 101 99 93 88 83 77 80 79 77 76 71 71 76 78 76 70 63 61 56 48 37 34 28 24 23 17 13 12 7 8 11 6 0 356 350 351 354 351 348 348 347 347 340 338 338 341 340 332 329 325 327 327 327 322 315 311 307 308 312 311 304 295 287 274 254 238 235 212 237 221 228 229 228 224 215 216 215 214 209 208 200
108 108 106 103 100 96 95 91 88 85 83 80 77 75 74 73 73 76 76 77 67 58 54 50 43 36 34 31 24 19 15 10 7 3 9 7 0 358 353 352 350 347 348 348 347 343 343 340 340 342 341 336 334 332 332 331 329 322 317 314 308 306 306 306 305 300 299 291 277 265 230 216 219 237 227 230 231 219 209 213 210 212 212 205 204
110 108 106 104 101 97 92 90 88 85 82 77 75 72 71 72 72 71 69 69 70 62 57 53 47 41 38 33 29 24 16 12 7 3 5 4 3 359 357 355 352 350 349 348 346 344 345 343 344 344 343 339 340 338 337 337 330 325 319 316 313 309 305 302 296 297 299 299 291 278 257 226 233 226 232 227 232 226 224 217 212 211 215 211 205
109 107 106 104 100 97 93 89 87 82 79 77 74 74 71 70 68 70 72 71 66 66 62 55 51 47 41 34 31 25 19 12 8 2 1 358 3 1 358 355 355 354 353 349 350 349 347 344 345 345 343 341 341 340 339 335 332 326 322 319 315 311 308 305 302 296 293 292 292 289 268 255 250 225 212 230 236 232 227 219 212 214 215 211 212
110 107 106 104 100 95 91 88 84 81 80 78 75 72 72 70 71 68 68 72 70 65 64 56 51 52 45 38 31 26 21 14 8 2 358 355 0 2 359 356 356 355 353 353 352 353 350 349 349 348 348 345 342 340 338 334 331 327 323 319 314 311 308 305 300 297 294 289 290 291 278 261 255 245 224 213 228 231 226 224 222 218 214 219 220
109 106 100 98 95 89 87 85 83 81 78 77 77 75 71 69 68 68 67 66 68 68 64 64 58 51 48 40 34 28 23 17 9 1 357 355 3 2 2 360 357 358 356 354 356 355 354 353 350 351 350 347 345 341 336 334 331 324 320 316 312 311 307 302 301 296 290 286 285 279 273 258 244 257 235 209 223 229 230 230 226 219 217 217 220
111 105 102 98 95 92 89 87 83 81 81 79 76 75 74 71 68 67 66 64 63 63 62 63 61 54 47 44 37 29 24 20 12 1 356 359 360 6 5 3 0 1 358 358 359 357 356 356 353 351 348 346 344 338 337 334 327 320 318 315 312 308 304 301 298 294 289 289 283 284 285 281 260 237 229 214 227 231 224 226 231 218 214 215 218
110 106 102 98 95 95 93 88 87 86 83 81 79 76 73 70 69 69 67 67 61 60 61 59 57 55 51 45 39 32 26 21 14 3 0 2 359 6 9 4 4 3 359 360 358 358 358 355 352 350 345 341 337 333 328 324 323 318 313 313 311 308 303 299 298 292 291 285 281 277 272 264 252 244 226 222 220 225 214 217 236 229 221 221 222
108 106 103 101 101 100 97 94 89 86 84 82 80 78 76 73 70 67 64 63 63 60 61 57 55 53 50 44 40 35 28 23 1 357 354 354 352 3 13 9 8 7 3 2 358 359 360 355 349 349 343 342 338 336 331 322 315 310 307 309 307 303 299 295 289 289 292 286 281 281 280 276 265 251 234 223 223 228 229 220 229 230 224 223 222
106 104 103 103 103 101 98 94 93 88 86 84 82 80 76 75 71 68 65 61 61 61 56 57 52 49 49 45 39 36 31 13 355 358 349 344 339 347 20 12 12 11 8 6 1 358 358 354 350 348 347 345 342 340 333 326 319 313 306 295 288 282 287 284 281 279 280 282 285 280 274 270 264 259 236 229 214 211 218 209 223 217 223 222 228
109 108 107 109 107 103 100 98 92 89 87 83 81 79 79 76 73 68 65 63 60 59 57 53 53 50 48 48 43 35 30 12 358 358 349 342 338 330 17 16 15 14 9 8 4 2 357 351 349 348 348 346 344 342 336 329 323 319 314 307 300 285 258 246 272 285 277 278 282 281 281 277 280 273 249 231 223 220 225 226 222 219 217 221 224
116 114 112 108 105 104 103 99 96 92 87 84 81 80 78 77 73 70 66 63 62 58 54 52 51 49 47 49 45 35 27 10 356 358 348 341 336 326 25 20 19 18 12 10 8 5 360 353 350 348 347 348 349 347 339 333 329 326 325 326 324 323 316 311 263 250 277 279 275 272 271 281 285 281 269 246 232 231 221 223 227 219 216 225 227
105 107 109 109 109 108 105 102 98 93 89 85 83 81 78 75 75 71 72 67 63 61 56 51 48 47 43 44 48 39 27 7 359 357 350 341 337 323 34 22 23 20 16 14 11 7 5 359 351 348 348 348 351 346 340 336 334 337 339 338 337 334 329 335 344 327 293 272 268 268 275 279 282 289 296 275 224 224 223 228 216 220 224 226 224
115 115 111 109 111 111 109 106 100 94 88 84 82 80 78 80 74 71 68 62 61 58 53 53 48 45 44 43 47 44 31 10 5 358 354 343 337 316 33 24 25 22 19 15 14 11 8 1 353 350 347 348 352 344 340 337 338 343 341 340 342 341 339 344 342 337 326 317 315 298 283 272 277 296 297 309 268 223 218 222 217 219 225 229 244
108 109 110 112 111 109 109 106 101 97 94 92 89 85 82 77 76 74 73 72 68 67 62 56 53 49 42 41 46 43 35 18 5 2 353 351 327 1 25 27 24 24 21 15 16 14 11 5 0 355 350 351 351 340 340 336 345 350 347 344 345 346 345 341 337 329 323 321 314 314 318 320 323 320 336 316 297 279 249 240 229 228 228 224 229
105 107 107 108 108 110 108 103 100 99 98 97 94 90 86 80 74 75 76 70 69 69 68 60 55 52 45 40 43 46 39 21 10 5 357 355 338 29 23 29 27 23 23 16 17 17 16 18 10 3 359 359 348 341 342 339 355 357 354 351 348 349 345 340 338 332 328 328 333 326 316 316 326 348 354 351 340 311 264 226 219 207 225 228 219
108 109 109 109 108 106 105 104 104 102 101 100 98 95 89 83 78 66 70 73 72 70 71 68 63 57 53 45 33 47 45 32 15 8 3 2 346 19 22 26 27 22 20 20 19 17 21 44 21 10 5 1 347 346 348 349 359 359 357 355 353 353 347 339 340 341 336 334 351 345 326 319 324 331 0 359 2 359 335 248 263 221 219 224 224
114 113 112 111 108 105 102 102 102 103 102 101 98 96 88 82 82 80 80 82 77 75 67 67 65 61 60 57 38 41 47 40 24 13 11 7 358 8 28 27 25 24 20 20 20 16 14 27 28 8 358 351 348 352 354 358 4 7 1 1 357 352 342 331 341 338 338 346 356 346 347 345 345 348 351 345 11 28 25 14 355 330 253 224 227
118 115 114 109 104 102 101 101 102 103 104 101 96 93 91 86 78 75 75 75 76 75 72 68 65 62 60 61 55 41 39 42 33 18 17 13 4 355 35 27 21 25 23 21 20 19 19 14 19 8 352 350 351 355 358 358 4 10 7 4 354 346 328 331 343 341 334 351 351 349 345 344 355 352 349 355 10 34 31 25 20 0 350 329 246
121 118 114 111 108 105 102 103 103 102 102 101 98 94 88 86 83 80 78 73 75 75 74 77 73 69 61 59 63 56 40 34 43 25 18 15 13 0 30 20 349 17 25 23 19 21 18 13 15 358 346 343 348 357 359 0 2 13 11 0 348 334 337 349 337 338 343 342 354 352 354 345 357 358 349 3 19 23 28 29 26 25 18 10 353
124 123 118 111 106 104 104 103 101 99 103 105 103 94 88 86 83 82 79 80 78 75 75 72 72 70 71 62 54 59 66 46 27 36 20 13 14 11 15 14 347 11 21 28 16 20 11 9 10 347 335 332 336 359 6 3 6 20 4 354 347 348 351 345 335 344 349 345 350 348 0 2 353 356 3 13 15 16 25 27 27 26 29 26 13
126 120 114 110 107 106 107 107 106 108 106 104 100 97 96 92 90 90 90 88 84 83 75 72 72 70 66 58 55 50 48 60 40 25 21 8 11 6 4 3 342 346 24 19 19 12 14 4 0 338 327 326 326 347 15 8 16 10 1 359 355 348 350 2 356 349 352 351 346 350 352 353 352 353 1 11 10 19 23 29 30 30 33 31 32
121 117 115 113 113 113 113 112 111 110 107 102 96 93 88 87 84 80 79 78 80 73 72 72 69 64 58 57 52 45 39 35 56 34 7 7 5 5 352 352 347 348 351 26 14 15 7 0 337 319 320 326 325 339 25 19 15 10 8 1 357 354 356 0 8 4 354 358 358 355 358 353 347 358 3 357 2 11 17 29 28 31 38 37 33
125 123 121 119 119 119 116 114 111 107 108 103 99 94 90 89 87 84 78 72 68 67 66 62 59 56 54 49 47 41 34 34 26 30 5 357 29 13 347 348 341 333 349 22 10 6 334 313 314 320 331 338 338 8 26 22 15 13 14 8 4 3 0 1 3 4 12 11 2 358 1 356 356 354 1 359 359 9 18 27 27 34 39 41 40
129 126 125 124 124 124 121 115 106 101 99 96 88 84 83 81 81 79 76 71 66 64 57 58 54 50 49 47 43 41 36 29 22 19 11 8 21 25 354 360 339 333 315 353 292 293 339 336 346 345 2 353 4 17 18 17 14 12 17 13 10 3 0 358 358 9 14 9 8 11 4 355 2 1 9 14 15 14 15 23 26 27 32 33 36
129 127 126 127 126 124 127 122 118 112 106 97 92 89 85 83 78 76 77 72 68 63 59 53 49 46 46 43 42 40 39 32 22 16 14 6 8 11 9 8 357 3 9 4 356 13 9 5 349 332 7 352 1 8 15 13 19 21 21 18 12 1 352 4 4 8 8 6 7 10 8 6 4 12 17 17 20 12 19 25 33 30 30 33 41
135 133 132 130 134 131 118 122 132 115 111 104 100 93 80 72 66 56 41 36 55 63 56 50 47 42 39 34 37 40 35 36 26 15 10 3 1 5 12 5 3 10 4 359 340 5 5 2 7 11 14 14 13 15 16 16 17 22 20 20 17 9 4 357 2 11 8 357 7 1 11 15 20 19 16 20 20 16 11 24 26 32 30 31 39
134 135 134 131 125 128 139 146 120 114 107 93 73 57 57 76 87 70 47 42 24 17 35 50 41 49 46 30 27 33 34 31 24 348 330 328 338 351 7 6 358 358 346 328 315 1 8 11 11 11 14 14 12 12 13 13 15 14 19 16 16 12 7 6 3 358 344 340 3 8 9 13 20 19 22 26 26 22 14 25 27 31 32 37 40
139 138 137 134 136 144 139 129 128 124 118 110 102 89 42 29 13 62 96 84 16 1 349 33 8 359 46 61 38 23 28 20 343 328 343 347 344 340 330 331 332 329 324 315 302 6 9 14 9 12 10 15 10 10 10 12 10 10 14 15 15 14 11 12 13 9 360 356 355 358 4 3 20 23 25 26 25 27 22 27 31 31 34 34 36
144 139 140 143 143 141 138 139 139 132 130 131 125 122 121 102 66 38 35 81 37 221 289 322 338 348 345 32 106 94 65 10 345 345 342 345 338 335 327 327 328 328 323 321 13 13 12 11 11 12 10 13 10 7 7 11 7 10 11 12 14 14 11 13 10 11 8 4 5 9 15 19 25 22 29 28 28 25 27 32 35 34 37 33 38
147 147 146 136 144 154 141 135 137 139 140 143 145 145 138 130 133 166 181 165 175 167 127 97 304 291 343 351 352 123 97 40 347 341 342 335 337 326 321 314 313 319 316 307 6 16 11 13 12 14 10 10 11 5 5 8 7 8 10 7 12 12 12 14 6 13 13 11 11 11 14 18 26 23 25 28 26 28 27 28 35 37 38 40 39
151 150 143 147 155 151 145 146 150 145 142 146 155 172 158 153 144 140 173 190 174 167 172 189 195 202 226 22 11 17 342 334 327 330 331 330 323 322 315 301 289 297 301 347 18 16 14 13 13 11 12 9 10 8 4 7 8 6 8 7 8 10 12 8 6 12 14 12 12 15 15 18 19 25 24 30 34 34 27 33 39 41 41 41 44
153 151 152 156 157 157 156 156 158 155 158 161 153 146 131 108 90 150 157 156 169 209 208 196 185 176 183 159 135 261 260 302 323 317 317 320 320 307 307 291 272 259 283 9 13 18 14 10 13 11 11 10 8 7 5 8 8 7 5 11 7 8 8 7 10 9 12 13 13 12 14 19 19 23 28 31 40 43 41 38 43 44 43 45 46
152 104 112 164 156 161 159 157 156 152 149 150 151 160 139 135 149 138 31 46 91 146 152 167 189 205 167 174 152 238 261 256 285 306 306 313 309 309 299 299 350 5 17 21 16 16 16 9 12 9 10 8 8 6 6 7 5 9 3 9 8 7 4 7 4 2 6 15 13 13 14 17 20 23 29 33 34 41 44 42 41 45 49 46 45
151 157 162 197 174 163 160 163 159 153 166 162 139 111 121 157 179 143 123 166 206 170 168 122 136 164 171 179 165 221 240 255 252 264 291 298 297 301 319 14 356 15 14 17 14 14 15 14 5 11 7 8 5 8 7 5 5 8 3 2 8 8 2 7 1 360 359 11 15 12 14 21 20 22 27 33 36 37 46 50 46 43 50 53 51
159 157 167 178 179 161 170 163 175 137 124 130 162 156 158 142 100 163 171 141 107 323 297 186 180 150 180 187 185 209 216 225 231 241 245 261 282 281 19 357 10 3 17 16 10 7 11 14 7 8 7 6 6 5 7 4 7 6 4 1 6 8 359 3 2 0 0 7 11 13 15 21 22 25 28 29 31 33 33 42 56 52 47 51 55
169 164 171 172 175 168 169 178 127 95 182 202 202 171 173 171 122 118 87 98 30 299 270 129 321 275 182 146 169 210 199 215 225 254 252 249 254 349 3 20 4 10 359 18 8 1 8 11 9 6 4 4 5 3 6 4 5 6 3 5 3 11 352 355 7 3 5 7 10 12 12 16 20 23 26 33 31 32 35 32 37 48 51 53 57
180 121 104 151 186 172 173 179 153 195 183 209 189 180 167 218 185 218 191 174 197 198 273 254 241 224 228 1 220 181 218 234 210 318 10 358 349 335 10 4 9 14 356 5 6 1 4 8 8 7 5 3 3 2 5 4 3 4 3 3 4 6 7 6 5 4 8 8 8 11 11 11 16 18 20 24 30 32 39 41 41 45 52 50 52
178 171 151 152 196 211 197 176 177 194 200 216 193 190 180 199 217 204 223 229 229 238 266 313 246 207 112 257 314 318 315 301 268 301 1 347 346 343 347 9 355 11 357 3 355 2 355 8 6 8 7 3 2 2 360 5 358 2 4 7 5 5 10 8 5 3 4 7 7 7 9 7 14 15 16 23 21 25 27 40 47 47 47 59 59
182 168 153 185 228 197 203 209 198 211 192 203 220 208 217 224 234 253 252 240 233 235 240 252 267 234 125 84 33 318 294 291 299 263 286 316 317 333 339 346 355 354 348 359 354 3 354 3 2 7 7 3 359 357 359 3 357 360 8 5 9 3 3 11 6 3 356 10 10 5 5 4 10 16 14 13 22 22 23 26 37 44 52 51 50
181 169 173 184 196 226 207 206 215 202 235 229 233 238 231 216 227 232 234 246 251 270 274 250 245 227 124 145 193 223 261 282 279 287 255 250 285 327 312 300 315 350 333 354 354 350 349 352 345 358 3 355 356 353 353 1 357 0 5 7 8 4 2 6 6 1 357 4 12 8 5 1 2 16 16 4 15 23 24 19 25 37 35 43 57
184 185 183 185 195 205 220 212 217 212 210 214 222 224 250 268 244 222 222 233 262 267 263 263 261 247 165 174 179 186 247 257 252 262 265 258 249 279 271 271 278 285 296 306 318 336 330 339 323 351 355 341 351 360 347 360 354 354 4 2 11 4 6 2 5 3 3 355 4 6 5 6 1 13 16 14 11 18 24 18 19 19 33 37 27
190 200 199 196 201 206 213 223 213 217 218 211 239 242 230 224 230 237 238 227 230 225 243 249 256 258 225 163 173 206 241 249 257 262 263 272 263 253 263 259 259 278 269 258 269 295 310 310 325 340 333 317 336 345 338 351 352 348 4 359 9 8 8 4 2 0 1 350 352 3 7 10 5 6 10 18 14 12 22 19 19 17 19 31 32
202 201 202 202 204 210 204 213 223 211 210 207 214 217 220 237 239 232 237 241 226 236 253 258 259 248 246 248 233 238 253 261 251 254 255 255 254 246 244 250 247 240 255 269 267 268 274 273 268 273 299 300 321 311 319 355 338 351 355 359 354 6 7 359 358 353 356 348 350 3 6 12 8 15 358 4 17 11 18 14 20 7 18 24 23
201 203 203 206 198 205 213 203 205 215 204 210 214 221 212 218 226 235 236 238 245 260 265 255 245 246 250 254 255 252 250 258 258 252 258 256 257 259 252 246 246 251 248 252 239 235 250 274 284 284 287 292 293 299 301 282 281 311 323 328 3 359 354 353 353 341 357 353 351 0 2 5 13 16 13 350 13 11 10 4 13 14 4 12 24
199 207 199 206 207 203 211 215 203 209 210 209 218 223 230 226 233 234 234 248 272 274 263 261 260 252 243 241 243 247 249 245 252 254 250 253 264 270 269 257 250 249 249 243 243 244 232 235 252 257 253 262 276 272 273 282 284 282 268 307 16 352 14 354 334 331 354 350 348 355 1 355 7 6 16 1 353 10 356 6 358 6 2 359 2
200 207 208 208 212 213 205 209 207 205 228 219 221 228 231 241 242 240 251 238 225 232 242 250 254 256 253 253 252 254 254 256 256 257 260 259 253 247 249 254 253 252 251 254 252 250 254 248 237 240 249 245 246 256 261 262 264 263 268 252 5 43 33 339 312 329 350 342 326 332 349 360 0 1 6 1 358 354 354 2 348 4 353 360 359
210 209 210 211 216 218 216 212 215 214 214 222 221 224 233 238 243 248 245 245 250 252 253 253 253 254 254 256 259 261 259 257 257 257 254 252 251 254 251 248 248 252 261 263 258 251 246 245 246 244 242 246 240 242 249 257 259 256 245 259 110 115 174 243 290 331 328 293 296 326 339 349 352 342 349 352 355 351 354 350 347 336 351 352 355
219 216 222 217 217 223 225 226 222 223 219 222 227 229 226 231 239 244 249 255 256 255 255 256 257 259 261 260 256 254 254 254 251 250 252 256 256 253 251 244 239 242 247 247 250 251 249 248 242 238 240 243 247 247 248 246 246 245 250 195 133 164 179 200 240 281 290 308 321 317 322 334 337 336 339 344 337 344 338 346 340 327 328 335 340
222 224 226 228 227 225 225 225 223 229 230 229 228 234 237 243 246 247 247 248 252 254 256 258 258 254 255 256 257 257 255 253 255 258 260 259 259 257 253 249 243 237 240 245 248 249 249 250 252 247 239 238 240 242 243 245 243 241 219 135 163 176 185 205 226 205 222 279 286 292 305 320 312 319 320 342 330 331 344 317 318 317 317 323 342